DECAYED

FENGYUN 1C DEB, 31159 (Decayed)

Orbit data source: Space-Track

FENGYUN 1C DEB, 31159 was space debris in SSO originally from a launch on Mon, 10 May 1999 UTC launched from the Taiyaun Space Center, China (TSC). Fengyun 1C debris stems from the Chinese weather satellite Fengyun-1C, which was intentionally destroyed by a Chinese anti-satellite missile in 2007. This event dramatically increased the amount of space debris, with thousands of trackable fragments posing hazards to satellites and human spaceflight. The Fengyun 1C debris cloud has become a focal point in discussions about space sustainability and the need for international regulations to prevent the creation of new debris.

Not visible in the next 10 days
Identifier
31159, 1999-025BHM
Orbit
Decayed
Country
Flag of CNCN / PRC
Related business
Manufacturer
Unknown
Mission
Decayed spacecraft
Bus & Motor
Unknown
Mass
Unknown
Launch date (UTC)
1999-05-10 (27 years ago)
Launch vehicle
Unknown
Launch site
Taiyaun Space Center, China (TSC)
Object type
Payload
Rocket body
Debris
Shape & HBR
Unknown shape, 0.1 m
Radar Cross Section
Small (<0.1 m²)

Expand to show TLE details & history
Last TLE update: 2 months ago

TLE from 2 months ago
0 FENGYUN 1C DEB
1 31159U 99025BHM 26162.20570037  .00340892  42076-4  14615-2 0  9993
2 31159  97.8027 143.4430 0041131  82.2243 278.3692 15.83701778 23395
Epoch: 2026-06-11T04:56Z
TLE epoch observation values (Epoch: 2026-06-11T04:56:12.511Z)
Latitude
-0.00008°
Longitude
169.83805°
Altitude
319.247 km
Speed
7.719 km/s
True Right ascension
09h 33m 46s
True Declination
0° 00' 00"
Sunlit
Object was in daylight at epoch
Visualization orbit readout
Latitude
Unknown
Longitude
Unknown
Altitude
Unknown
Speed
Unknown
Apparent Right ascension
Unknown
Apparent Declination
Unknown
Sunlit
N/A
Visualization observer readout
Local Sidereal Time
08:30:52
Azimuth
Unknown
Elevation
Unknown
Doppler factor
Unknown
Orbital elements
Apogee altitude
344.419 km
Perigee altitude
289.345 km
Semi-major axis
6,695.019 km
Eccentricity
0.00411
Inclination
97.8027°
RAAN
143.443°
Arg. of periapsis
82.2243°
True anomaly
277.90255°
Mean anomaly
278.3692°
Eccentric anomaly
278.13591°
Mean motion
3.96201 °/min
Orbital period
90.86 mins
BSTAR
0.0014615
Loading maneuver chart data...
Computing Atmospheric mass density...

Documentation

Showing up to 5 results
|